Weather History for Lincoln, NE

Change the Weather History Date:

Tuesday, March 4, 2014

  Actual Average Record
Temperature  
Mean Temperature 27 °F 35 °F  
Max Temperature 43 °F 47 °F 80 °F (1921)
Min Temperature 10 °F 24 °F -19 °F (1978)
Degree Days  
Heating Degree Days 38 30  
Month to date heating degree days 216 121  
Since 1 July heating degree days 5333 4824  
Cooling Degree Days 0 0  
Month to date cooling degree days 0 0  
Year to date cooling degree days 0 0  
Moisture  
Dew Point 12 °F    
Average Humidity 54    
Maximum Humidity 69    
Minimum Humidity 38    
Precipitation  
Precipitation 0.00 in 0.04 in 0.88 in (1983)
Month to date precipitation 0.03 0.16  
Year to date precipitation 0.89 1.57  
Snow  
Snow 0.00 in 0.20 in - ()
Month to date snowfall 0.6 0.7  
Since 1 July snowfall 17.6 20.4  
Snow Depth 1.00 in    
Sea Level Pressure  
Sea Level Pressure 30.08 in    
Wind  
Wind Speed 8 mph (SE)    
Max Wind Speed 16 mph    
Max Gust Speed 20 mph    
Visibility 10 miles    
Events      
T = Trace of Precipitation, MM = Missing Value Source: NWS Daily Summary

Daily Weather History Graph

Daily Weather History Graph

Search for Another Location

Airport:

Trip Planner

Search our weather history database for the weather conditions in past years. The results will help you decide how hot, cold, wet, or windy it might be!

Date:

Astronomy

Mar. 04, 2014 Rise Set
Actual Time 6:56 AM CST 6:21 PM CST
Civil Twilight 6:28 AM CST 6:49 PM CST
Nautical Twilight 5:57 AM CST 7:20 PM CST
Astronomical Twilight 5:25 AM CST 7:52 PM CST
Moon 8:41 AM CST (3/4) 10:32 PM CST (3/4)
Length of Visible Light 12h 20m
Length of Day
11h 25m
Waxing Crescent, 15% of the Moon is Illuminated
Mar 4
Waxing Crescent
Mar 8
First Quarter
Mar 16
Full
Mar 23
Last Quarter
Mar 30
New

Hourly Weather History & Observations

Time (CST) Temp. Windchill Dew Point Humidity Pressure Visibility Wind Dir Wind Speed Gust Speed Precip Events Conditions
12:54 AM 12.9 °F 2.6 °F -0.9 °F 54% 30.20 in 10.0 mi South 6.9 mph - N/A   Clear
1:54 AM 10.9 °F -0.8 °F -0.0 °F 61% 30.19 in 10.0 mi South 8.1 mph - N/A   Clear
2:54 AM 10.0 °F -0.9 °F -0.0 °F 64% 30.17 in 10.0 mi South 6.9 mph - N/A   Clear
3:54 AM 10.9 °F 0.2 °F -0.0 °F 61% 30.15 in 10.0 mi South 6.9 mph - N/A   Clear
4:54 AM 10.9 °F 2.9 °F 1.0 °F 64% 30.14 in 10.0 mi South 4.6 mph - N/A   Clear
5:54 AM 12.0 °F 4.1 °F 1.0 °F 61% 30.13 in 10.0 mi SSE 4.6 mph - N/A   Clear
6:54 AM 12.0 °F 4.1 °F 1.0 °F 61% 30.13 in 10.0 mi SSE 4.6 mph - N/A   Clear
7:54 AM 14.0 °F 5.1 °F 3.9 °F 64% 30.12 in 10.0 mi SSE 5.8 mph - N/A   Clear
8:54 AM 18.0 °F 9.8 °F 3.0 °F 52% 30.12 in 10.0 mi South 5.8 mph - N/A   Clear
9:54 AM 23.0 °F 17.0 °F 5.0 °F 46% 30.11 in 10.0 mi WSW 4.6 mph - N/A   Clear
10:54 AM 27.0 °F 21.6 °F 7.0 °F 43% 30.08 in 10.0 mi East 4.6 mph - N/A   Clear
11:54 AM 33.1 °F 24.9 °F 10.9 °F 40% 30.06 in 10.0 mi ESE 10.4 mph - N/A   Clear
12:54 PM 36.0 °F 29.6 °F 14.0 °F 41% 30.05 in 10.0 mi SSE 8.1 mph - N/A   Partly Cloudy
1:54 PM 37.9 °F 31.5 °F 16.0 °F 41% 30.01 in 10.0 mi SSE 9.2 mph - N/A   Clear
2:54 PM 41.0 °F 33.5 °F 19.0 °F 41% 29.99 in 10.0 mi SSE 13.8 mph - N/A   Partly Cloudy
3:54 PM 43.0 °F 36.8 °F 21.0 °F 42% 29.98 in 10.0 mi South 11.5 mph - N/A   Partly Cloudy
4:54 PM 41.0 °F 34.7 °F 21.9 °F 47% 29.98 in 10.0 mi SE 10.4 mph - N/A   Partly Cloudy
5:54 PM 39.0 °F 33.4 °F 23.0 °F 53% 29.98 in 10.0 mi ESE 8.1 mph - N/A   Clear
6:54 PM 37.0 °F 31.6 °F 23.0 °F 57% 30.00 in 10.0 mi East 6.9 mph - N/A   Clear
7:54 PM 33.1 °F 25.5 °F 21.9 °F 64% 30.02 in 10.0 mi ENE 9.2 mph - N/A   Partly Cloudy
8:54 PM 30.9 °F 21.7 °F 19.9 °F 64% 30.04 in 10.0 mi ENE 11.5 mph - N/A   Scattered Clouds
9:54 PM 30.0 °F 23.2 °F 19.9 °F 66% 30.08 in 10.0 mi ENE 6.9 mph - N/A   Mostly Cloudy
10:54 PM 28.9 °F 21.1 °F 19.9 °F 69% 30.09 in 10.0 mi NE 8.1 mph - N/A   Scattered Clouds
11:54 PM 28.9 °F 21.1 °F 19.0 °F 67% 30.12 in 10.0 mi NNE 8.1 mph - N/A   Scattered Clouds